Location: Astroquest
(35.1187°N, 89.7105°W)
Time: 03:42:46
(UTC-05:00)

Envisat - Visible Passes

Search period start: 24 April 2018 00:00
Search period end: 04 May 2018 00:00
Orbit: 764 x 766 km, 98.2° (Epoch: 23 April)

Date Brightness Start Highest point End Pass type
(mag) Time Alt. Az. Time Alt. Az. Time Alt. Az.
24 Apr 3.2 20:33:11 10° S 20:38:15 75° WSW 20:43:21 10° NNW visible
25 Apr 5.6 21:37:36 10° SW 21:40:49 17° W 21:44:04 10° NW visible
26 Apr 4.3 20:59:09 10° SSW 21:03:52 40° W 21:08:38 10° NNW visible
27 Apr 3.0 20:22:02 10° SSE 20:27:07 85° ENE 20:32:12 10° N visible
28 Apr 5.2 21:25:43 10° SW 21:29:35 22° W 21:33:28 10° NW visible
29 Apr 3.8 20:47:46 10° S 20:52:42 52° W 20:57:39 10° NNW visible
30 Apr 3.0 20:10:58 10° SSE 20:15:59 66° ENE 20:21:02 10° N visible
30 Apr 5.8 21:53:46 10° WSW 21:55:24 11° W 21:57:01 10° WNW visible
01 May 4.9 21:14:03 10° SSW 21:18:22 28° W 21:22:43 10° NW visible
02 May 3.4 20:36:30 10° S 20:41:32 67° WSW 20:46:36 10° NNW visible
03 May 5.6 21:41:14 10° SW 21:44:08 15° W 21:47:03 10° WNW visible
